When you browse on this site, cookies collect data to enhance your experience and personalize the content and advertising you see.
Visit our Privacy Policy to learn more. By continuing to use the site, you agree to this use of cookies and data.
  • In Hungary
  • List of Countries
  • For 7 days
  • Water Temperature
  • Weather Map
  • News
  • Weather Widgets
  • user-avatar
    Login

    Hourly Weather Namaacha

    Today, 10 December, Tuesday

    Time Temperature Precipitation Wind Pressure Humidity
    00:00 +17°C° 0.3 mm 3 mps 726 mmHg 94%
    01:00 +17°C° 0.3 mm 3 mps 725 mmHg 93%
    02:00 +17°C° 0 mm 3 mps 725 mmHg 94%
    03:00 +17°C° 0.2 mm 3 mps 725 mmHg 93%
    04:00 +17°C° 0.2 mm 3 mps 725 mmHg 92%
    05:00 +17°C° 0.2 mm 3 mps 725 mmHg 92%
    06:00 +17°C° 0.2 mm 3 mps 725 mmHg 91%
    07:00 +17°C° 0.2 mm 3 mps 726 mmHg 90%
    08:00 +17°C° 0 mm 3 mps 726 mmHg 87%
    09:00 +17°C° 0.3 mm 4 mps 726 mmHg 88%
    10:00 +17°C° 0.3 mm 4 mps 726 mmHg 89%
    11:00 +17°C° 0.3 mm 4 mps 726 mmHg 89%
    12:00 +17°C° 0.9 mm 4 mps 725 mmHg 90%
    13:00 +17°C° 0.9 mm 4 mps 725 mmHg 92%
    14:00 +17°C° 0 mm 3 mps 725 mmHg 95%
    15:00 +17°C° 1 mm 3 mps 724 mmHg 95%
    16:00 +17°C° 1 mm 3 mps 724 mmHg 95%
    17:00 +17°C° 1 mm 3 mps 724 mmHg 95%
    18:00 +17°C° 0.4 mm 3 mps 724 mmHg 95%
    19:00 +17°C° 0.4 mm 2 mps 724 mmHg 95%
    20:00 +16°C° 0.4 mm 2 mps 725 mmHg 95%
    21:00 +16°C° 0.1 mm 2 mps 724 mmHg 95%
    22:00 +16°C° 0.1 mm 2 mps 724 mmHg 94%
    23:00 +16°C° 0.1 mm 2 mps 724 mmHg 94%

    Tomorrow, 11 December, Wednesday

    Time Temperature Precipitation Wind Pressure Humidity
    00:00 +17°C° 0 mm 2 mps 724 mmHg 94%
    01:00 +17°C° 0 mm 2 mps 723 mmHg 93%
    02:00 +18°C° 0 mm 1 mps 723 mmHg 93%
    03:00 +18°C° 0.2 mm 1 mps 723 mmHg 93%
    04:00 +18°C° 0.2 mm 1 mps 723 mmHg 93%
    05:00 +18°C° 0.2 mm 1 mps 722 mmHg 93%
    06:00 +20°C° 0.1 mm 1 mps 723 mmHg 87%
    07:00 +22°C° 0.1 mm 1 mps 723 mmHg 81%
    08:00 +23°C° 0.1 mm 1 mps 724 mmHg 76%
    09:00 +25°C° 0 mm 1 mps 724 mmHg 69%
    10:00 +27°C° 0 mm 1 mps 724 mmHg 62%
    11:00 +29°C° 0 mm 1 mps 723 mmHg 55%
    12:00 +29°C° 0 mm 1 mps 723 mmHg 54%
    13:00 +30°C° 0 mm 1 mps 723 mmHg 54%
    14:00 +30°C° 0 mm 1 mps 722 mmHg 53%
    15:00 +29°C° 0 mm 1 mps 722 mmHg 57%
    16:00 +28°C° 0 mm 1 mps 722 mmHg 61%
    17:00 +28°C° 0 mm 1 mps 722 mmHg 66%
    18:00 +26°C° 0.2 mm 1 mps 722 mmHg 73%
    19:00 +25°C° 0.2 mm 1 mps 723 mmHg 80%
    20:00 +23°C° 0.2 mm 1 mps 723 mmHg 87%
    21:00 +23°C° 0.3 mm 1 mps 723 mmHg 89%
    22:00 +22°C° 0.3 mm 1 mps 724 mmHg 90%
    23:00 +21°C° 0.3 mm 2 mps 724 mmHg 92%

    Day after tomorrow, 12 December, Thursday

    Time Temperature Precipitation Wind Pressure Humidity
    00:00 +21°C° 0.3 mm 2 mps 724 mmHg 93%
    01:00 +21°C° 0.3 mm 2 mps 724 mmHg 93%
    02:00 +20°C° 0.3 mm 2 mps 723 mmHg 93%
    03:00 +20°C° 0 mm 2 mps 723 mmHg 93%
    04:00 +20°C° 0 mm 2 mps 724 mmHg 93%
    05:00 +20°C° 0 mm 2 mps 724 mmHg 92%
    06:00 +20°C° 0 mm 2 mps 724 mmHg 90%
    07:00 +21°C° 0 mm 2 mps 724 mmHg 88%
    08:00 +22°C° 0 mm 3 mps 725 mmHg 86%
    09:00 +24°C° 0.1 mm 2 mps 725 mmHg 77%
    10:00 +26°C° 0.1 mm 2 mps 725 mmHg 69%
    11:00 +28°C° 0.1 mm 2 mps 725 mmHg 60%
    12:00 +28°C° 0.2 mm 3 mps 725 mmHg 60%
    13:00 +29°C° 0.2 mm 4 mps 724 mmHg 60%
    14:00 +29°C° 0.2 mm 5 mps 724 mmHg 60%
    15:00 +28°C° 0.2 mm 5 mps 724 mmHg 63%
    16:00 +27°C° 0.2 mm 5 mps 724 mmHg 65%
    17:00 +27°C° 0.2 mm 5 mps 724 mmHg 68%
    18:00 +25°C° 0.2 mm 4 mps 724 mmHg 75%
    19:00 +22°C° 0.2 mm 3 mps 725 mmHg 82%
    20:00 +21°C° 0.2 mm 2 mps 726 mmHg 88%
    21:00 +20°C° 0 mm 2 mps 726 mmHg 90%
    22:00 +20°C° 0 mm 2 mps 726 mmHg 93%
    23:00 +19°C° 0 mm 2 mps 727 mmHg 95%

    13 December, Friday

    Time Temperature Precipitation Wind Pressure Humidity
    00:00 +19°C° 0 mm 2 mps 726 mmHg 96%
    01:00 +20°C° 0 mm 1 mps 726 mmHg 96%
    02:00 +20°C° 0 mm 1 mps 726 mmHg 97%
    03:00 +20°C° 0.1 mm 1 mps 726 mmHg 96%
    04:00 +21°C° 0.1 mm 1 mps 726 mmHg 95%
    05:00 +20°C° 0.1 mm 2 mps 726 mmHg 94%
    06:00 +21°C° 0.2 mm 2 mps 726 mmHg 91%
    07:00 +23°C° 0.2 mm 2 mps 727 mmHg 87%
    08:00 +24°C° 0.2 mm 2 mps 727 mmHg 84%
    09:00 +25°C° 0.4 mm 2 mps 727 mmHg 81%
    10:00 +26°C° 0.4 mm 2 mps 727 mmHg 78%
    11:00 +27°C° 0.4 mm 2 mps 726 mmHg 74%
    12:00 +27°C° 0.3 mm 3 mps 726 mmHg 73%
    13:00 +27°C° 0.3 mm 3 mps 725 mmHg 71%
    14:00 +28°C° 0.3 mm 4 mps 725 mmHg 70%
    15:00 +27°C° 0.1 mm 4 mps 725 mmHg 71%
    16:00 +27°C° 0.1 mm 4 mps 725 mmHg 72%
    17:00 +26°C° 0.1 mm 5 mps 724 mmHg 73%
    18:00 +25°C° 0 mm 4 mps 725 mmHg 79%
    19:00 +24°C° 0 mm 3 mps 725 mmHg 84%
    20:00 +21°C° 0 mm 3 mps 726 mmHg 90%
    21:00 +21°C° 0 mm 2 mps 726 mmHg 91%
    22:00 +22°C° 0 mm 1 mps 726 mmHg 92%
    23:00 +20°C° 0 mm 0 mps 727 mmHg 93%

    14 December, Saturday

    Time Temperature Precipitation Wind Pressure Humidity
    00:00 +22°C° 0 mm 1 mps 726 mmHg 93%
    01:00 +22°C° 0 mm 1 mps 726 mmHg 93%
    02:00 +21°C° 0 mm 2 mps 725 mmHg 93%
    03:00 +21°C° 0 mm 1 mps 725 mmHg 95%
    04:00 +21°C° 0 mm 1 mps 725 mmHg 96%
    05:00 +21°C° 0 mm 1 mps 725 mmHg 97%
    06:00 +21°C° 0.1 mm 2 mps 725 mmHg 90%
    07:00 +24°C° 0.1 mm 2 mps 726 mmHg 83%
    08:00 +26°C° 0.1 mm 3 mps 726 mmHg 76%
    09:00 +27°C° 0 mm 4 mps 725 mmHg 70%
    10:00 +28°C° 0 mm 4 mps 725 mmHg 64%
    11:00 +30°C° 0 mm 4 mps 725 mmHg 58%
    12:00 +32°C° 0 mm 4 mps 724 mmHg 55%
    13:00 +33°C° 0 mm 5 mps 724 mmHg 51%
    14:00 +34°C° 0 mm 5 mps 723 mmHg 48%
    15:00 +33°C° 0 mm 5 mps 723 mmHg 50%
    16:00 +33°C° 0 mm 4 mps 722 mmHg 53%
    17:00 +32°C° 0 mm 4 mps 722 mmHg 55%
    18:00 +29°C° 0 mm 4 mps 722 mmHg 65%
    19:00 +27°C° 0 mm 3 mps 722 mmHg 75%
    20:00 +25°C° 0 mm 2 mps 722 mmHg 85%
    21:00 +24°C° 0 mm 2 mps 722 mmHg 86%
    22:00 +24°C° 0 mm 2 mps 723 mmHg 87%
    23:00 +24°C° 0 mm 2 mps 723 mmHg 89%

    15 December, Sunday

    Time Temperature Precipitation Wind Pressure Humidity
    00:00 +24°C° 0 mm 2 mps 722 mmHg 86%
    01:00 +24°C° 0 mm 2 mps 722 mmHg 84%
    02:00 +24°C° 0 mm 3 mps 721 mmHg 82%
    03:00 +24°C° 0 mm 3 mps 721 mmHg 82%
    04:00 +24°C° 0 mm 3 mps 721 mmHg 82%
    05:00 +22°C° 0 mm 3 mps 721 mmHg 82%
    06:00 +25°C° 0 mm 4 mps 721 mmHg 76%
    07:00 +27°C° 0 mm 4 mps 722 mmHg 69%
    08:00 +29°C° 0 mm 5 mps 722 mmHg 63%
    09:00 +32°C° 0 mm 5 mps 722 mmHg 56%
    10:00 +34°C° 0 mm 5 mps 722 mmHg 50%
    11:00 +37°C° 0 mm 5 mps 722 mmHg 44%
    12:00 +39°C° 0 mm 5 mps 721 mmHg 40%
    13:00 +41°C° 0 mm 4 mps 721 mmHg 35%
    14:00 +42°C° 0 mm 4 mps 720 mmHg 31%
    15:00 +38°C° 0.8 mm 3 mps 720 mmHg 39%
    16:00 +35°C° 0.8 mm 2 mps 720 mmHg 48%
    17:00 +31°C° 0.8 mm 1 mps 720 mmHg 56%
    18:00 +28°C° 1 mm 3 mps 721 mmHg 68%
    19:00 +25°C° 1 mm 4 mps 722 mmHg 81%
    20:00 +21°C° 1 mm 5 mps 723 mmHg 93%
    21:00 +20°C° 0.3 mm 6 mps 724 mmHg 91%
    22:00 +19°C° 0.3 mm 6 mps 725 mmHg 90%
    23:00 +17°C° 0.3 mm 6 mps 726 mmHg 88%
    Show more